Hourly Data Report for June 11, 2021

WINNIPEG THE FORKS
MANITOBA
Current Station Operator: ECCC - MSC

49°53'18.008" N
97°07'46.007" W
230.00 m
5023262
71579
XWN

Download Data

Hourly Data (June 2021)
Hourly Data Report for June 11, 2021
TIME
LST
Temp Definition
°C
Dew Point Definition
°C
Rel Hum Definition
%
Precip. Amount Definition
mm

Wind Dir Definition
10's deg

Wind Spd Definition
km/h
Visibility Definition
km
Stn Press Definition
kPa
Hmdx Definition


Wind Chill Definition


Weather Definition


00:00 17.6 14.0 80 0.0 7 10   98.04     LegendNANA
01:00 17.0 13.6 80 0.0 7 11   97.94     LegendNANA
02:00 16.6 13.6 82 0.0 7 10   97.85     LegendNANA
03:00 16.9 14.1 83 0.0 7 12   97.71     LegendNANA
04:00 17.7 14.7 83 0.0 7 12   97.56     LegendNANA
05:00 18.0 15.3 84 0.0 8 10   97.42     LegendNANA
06:00 19.0 16.2 84 0.0 23 7   97.69     LegendNANA
07:00 18.2 16.4 89 0.2 6 3   97.56     LegendNANA
08:00 19.8 17.4 86 0.0 6 11   97.23     LegendNANA
09:00 22.6 18.0 75 0.0 9 10   97.21 29   LegendNANA
10:00 24.0 17.6 68 0.0 9 6   97.23 30   LegendNANA
11:00 24.2 17.5 66 0.0 19 5   97.25 30   LegendNANA
12:00 24.9 17.8 65 0.0 20 9   97.24 31   LegendNANA
13:00 22.1 14.4 61 0.0 21 13   97.34 26   LegendNANA
14:00 22.5 14.2 59 0.0 20 10   97.35 26   LegendNANA
15:00 22.1 12.5 55 0.0 20 15   97.37 25   LegendNANA
16:00 22.6 9.9 45 0.0 21 24   97.37     LegendNANA
17:00 20.6 10.1 51 0.0 20 31   97.33     LegendNANA
18:00 18.9 11.3 61 0.0 20 21   97.28     LegendNANA
19:00 18.3 12.2 68 0.0 20 15   97.31     LegendNANA
20:00 18.4 13.1 71 0.0 20 19   97.37     LegendNANA
21:00 18.3 13.2 72 0.0 22 13   97.48     LegendNANA
22:00 18.2 13.3 73 0.0 22 13   97.55     LegendNANA
23:00 18.0 13.2 73 0.0 23 11   97.62     LegendNANA

Notes on Data Quality.

Legend

  • E = Estimated
  • M = Missing
  • NA = Not Available*
  • [empty] = Indicates an unobserved value
Date modified: